Theta_e
307 310 311 308 307 309 309 310 309 309 309 309 307 308 309 306 305 304 305 306 312 319 325 327 330 331 332 332 333 333 332 332 331 331 330 329 329 328 328 327 327 327 326 327
308 307 307 307 307 308 308 308 309 308 308 308 308 308 308 306 305 304 304 304 305 308 307 311 316 324 328 331 332 333 333 332 332 331 331 330 328 328 328 327 327 327 327 327
309 307 307 308 307 308 307 307 307 309 308 307 308 306 306 305 304 304 303 303 304 305 307 306 304 310 316 324 327 328 330 332 332 332 331 331 330 329 329 327 327 327 327 327
307 306 307 307 307 307 308 306 307 308 308 309 306 309 305 304 303 303 303 303 305 305 304 304 303 304 306 308 314 325 327 327 328 330 331 331 330 329 329 327 327 327 327 327
307 305 306 307 307 306 308 305 307 308 307 306 306 305 305 304 305 304 303 303 305 306 305 301 301 305 308 308 308 311 321 327 328 329 330 330 329 329 329 328 327 327 328 327
306 305 305 306 305 305 304 305 303 302 303 307 305 304 305 304 306 306 305 303 303 301 300 300 303 304 306 306 306 310 318 324 328 329 330 330 330 329 329 328 328 328 328 328
306 306 305 304 305 304 305 305 307 308 307 309 303 304 308 306 304 305 306 303 302 302 300 298 297 302 303 305 306 307 314 323 326 329 330 330 330 330 328 329 329 329 329 329
308 308 305 305 305 305 304 305 307 308 308 306 303 306 306 305 306 304 302 301 300 304 303 301 300 302 305 307 308 309 312 319 325 328 329 329 329 329 328 328 329 329 329 329
307 306 305 305 305 307 305 306 305 305 294 304 303 302 303 305 304 303 302 301 301 302 304 303 303 304 308 309 310 310 312 316 321 325 328 330 326 326 327 327 327 328 329 326
306 308 306 306 306 306 305 306 308 305 304 306 304 304 304 304 304 304 303 302 300 301 303 302 303 305 308 311 311 312 311 311 311 310 310 312 316 322 324 325 325 325 326 327
305 307 308 306 307 306 306 307 305 306 305 307 303 303 300 305 303 304 303 302 301 301 302 302 303 306 307 310 312 313 313 313 312 311 310 309 307 306 307 311 319 321 322 324
307 307 309 308 306 305 306 307 308 309 306 304 305 304 302 301 300 302 302 302 301 301 301 302 302 305 306 308 311 313 313 313 314 314 314 314 314 313 312 316 319 319 320 321
308 308 308 310 307 306 306 305 307 304 304 307 306 306 301 301 303 302 301 301 300 300 300 301 301 302 304 307 309 311 312 313 313 314 315 315 315 316 316 316 316 317 317 316
309 308 310 310 309 307 309 306 305 306 308 307 306 306 305 304 305 304 305 303 300 298 298 300 300 301 303 305 307 309 310 311 312 312 311 313 314 314 314 314 314 315 315 315
309 310 306 306 306 307 308 308 306 307 309 308 309 305 305 302 304 305 304 305 305 302 300 299 300 300 303 304 305 307 309 310 311 311 310 310 310 312 312 311 310 310 311 312
305 304 305 304 305 306 307 307 307 307 308 307 306 304 303 302 302 302 301 302 304 304 303 301 299 299 301 303 305 306 307 309 310 311 311 310 309 308 308 309 309 310 310 309
306 305 305 302 306 305 308 307 307 307 307 308 307 307 304 304 301 301 301 300 300 301 302 302 301 301 302 304 305 305 305 308 310 310 310 309 309 309 309 308 307 307 307 307
309 309 306 306 306 309 307 304 306 307 307 307 307 306 304 303 304 303 300 301 299 299 300 300 299 302 305 304 304 305 305 307 309 308 308 308 308 308 307 306 307 307 305 302
307 308 307 311 302 307 308 305 303 305 307 305 305 305 303 303 302 300 299 298 300 301 300 301 304 304 303 304 304 304 304 305 306 305 305 305 306 306 306 306 306 303 301 299
306 308 311 307 309 313 306 304 301 303 309 305 304 304 303 300 305 307 301 300 298 298 300 301 301 302 302 303 303 303 303 303 303 306 305 306 306 306 305 305 301 300 299 298
310 311 312 311 312 304 303 303 303 310 309 306 303 304 304 303 305 302 301 301 299 299 299 300 300 301 302 302 302 301 301 301 304 305 306 305 304 304 303 300 298 298 296 294
311 312 313 310 311 312 300 300 307 307 303 304 304 302 302 301 300 302 301 300 299 298 299 299 299 299 299 300 300 299 299 301 302 303 303 302 301 299 298 297 296 295 293 291
310 309 308 311 309 304 298 303 300 301 303 303 304 304 303 302 301 300 299 297 295 295 295 295 295 295 296 297 298 297 297 299 300 300 299 298 297 296 296 295 294 291 290 289
305 302 305 306 304 303 300 301 301 300 301 300 299 300 301 301 299 297 295 294 292 291 291 291 293 292 292 293 296 298 299 299 299 297 296 295 294 293 293 292 291 290 289 289
304 303 301 302 301 302 302 301 299 297 296 296 294 295 296 296 294 295 293 292 290 289 289 290 290 290 290 292 294 296 297 297 296 295 293 292 292 292 291 290 290 290 290 291
300 303 308 310 301 303 302 297 296 296 294 294 294 293 290 292 293 291 290 289 289 288 289 290 291 291 292 292 294 294 294 295 295 292 290 290 290 289 289 288 287 288 288 289
Wind_Speed
2 6 12 6 6 5 5 4 4 3 4 4 6 7 10 5 3 7 9 9 10 13 18 21 26 31 32 31 34 35 34 36 33 32 30 27 27 27 27 26 24 22 22 22
4 7 5 8 5 4 4 6 5 2 1 4 2 8 12 5 6 8 10 9 11 8 7 18 26 26 31 36 37 36 39 39 37 36 35 32 30 29 29 27 27 27 25 23
8 6 8 7 5 6 4 5 4 4 1 0 2 7 8 6 4 6 8 9 7 14 15 13 17 30 32 35 37 40 41 42 41 40 35 30 27 26 23 26 29 30 28 27
5 3 10 5 6 6 6 6 4 3 3 4 2 6 6 6 9 6 9 10 15 14 11 10 15 23 32 37 37 39 39 40 39 39 38 37 30 27 31 32 30 30 29 29
9 10 8 7 7 7 7 5 5 2 3 1 1 3 6 2 6 8 11 15 17 17 12 10 14 28 28 30 33 36 37 38 38 38 38 39 33 32 30 28 29 29 28 28
6 2 7 9 4 9 8 6 7 4 2 5 7 6 5 6 8 8 9 10 8 8 9 9 18 22 26 24 24 27 30 34 35 35 36 38 35 34 32 31 29 27 27 26
3 3 3 5 7 3 5 8 1 2 1 7 3 4 12 7 9 10 9 7 6 5 6 7 8 9 14 20 21 22 27 30 32 32 34 38 38 35 32 34 32 29 29 27
11 8 9 5 7 9 8 8 5 7 4 4 2 7 6 11 15 7 7 6 6 5 4 5 7 11 13 15 15 17 22 28 28 29 31 32 32 34 33 31 30 29 29 26
10 6 1 4 6 12 6 6 8 6 2 3 5 7 8 14 13 11 10 7 9 8 5 6 4 7 9 11 12 13 16 18 21 25 27 27 26 27 26 26 26 27 25 23
6 5 2 3 5 2 8 10 4 1 3 4 5 5 6 7 12 7 7 9 8 7 8 5 4 7 9 9 11 11 11 12 14 17 19 20 22 24 25 23 22 22 22 20
5 4 2 5 8 10 4 7 2 5 5 5 1 6 8 14 7 8 9 7 9 9 8 7 7 10 9 10 10 9 9 10 11 11 11 13 15 18 19 18 17 17 17 17
2 6 4 5 4 3 4 10 12 7 5 2 3 8 3 4 8 6 6 6 7 5 5 5 8 11 11 10 11 11 12 11 10 8 8 8 8 9 12 13 14 15 16 13
8 1 4 4 5 2 7 3 10 6 3 9 5 7 3 3 6 3 7 6 6 5 5 4 4 8 12 14 13 13 12 11 11 11 11 11 11 11 12 14 14 14 13 12
12 3 8 13 11 8 6 6 5 7 4 5 16 6 2 9 4 4 4 3 5 6 7 6 6 9 14 14 14 14 13 13 13 14 14 14 14 14 15 14 14 14 14 15
9 14 4 2 3 7 6 11 13 14 26 15 24 16 16 8 6 6 2 2 4 6 7 7 7 6 14 17 17 17 17 17 15 14 14 14 14 14 15 15 15 15 15 15
5 2 4 4 3 5 4 11 21 28 24 26 13 8 6 9 3 3 7 6 7 8 8 8 8 9 19 22 24 23 21 18 17 15 15 15 16 17 16 17 18 17 17 16
7 5 4 3 2 4 4 22 18 21 19 21 17 13 8 8 8 9 10 10 11 11 10 8 11 15 20 27 28 27 23 20 21 20 18 18 19 20 20 19 18 18 17 17
10 11 3 4 1 4 10 5 20 23 20 23 24 4 9 11 16 13 9 9 10 9 10 10 9 16 23 23 22 23 23 26 27 24 23 22 21 20 19 20 20 19 20 21
4 5 4 6 4 8 15 8 7 9 20 17 20 13 6 5 2 9 7 9 14 12 9 15 25 23 20 19 21 25 28 30 29 30 28 26 25 24 23 23 22 22 23 23
5 5 4 4 6 21 5 12 8 6 21 12 14 14 13 9 12 16 12 9 11 16 21 19 19 17 17 18 21 28 32 32 33 32 31 29 30 30 30 28 26 25 23 22
12 9 15 9 9 9 6 2 8 11 9 4 5 11 14 13 10 1 4 0 1 5 11 16 14 16 21 18 23 30 31 35 35 30 30 30 28 28 27 26 26 26 27 25
12 11 9 8 11 21 6 5 15 7 3 1 4 1 5 2 5 2 3 3 6 6 6 6 8 11 12 15 25 29 32 32 27 29 29 28 28 28 26 26 27 28 27 25
6 9 8 12 8 4 6 3 4 3 3 4 4 3 3 4 2 2 4 5 5 6 7 8 6 5 5 10 19 21 20 21 25 26 26 26 26 25 26 29 30 29 28 27
3 2 4 4 6 7 8 3 2 3 3 3 4 5 3 5 5 4 3 3 3 3 5 5 3 2 1 5 13 18 20 23 26 26 25 25 25 24 26 28 30 31 29 27
4 10 6 3 3 3 2 3 5 4 5 8 7 5 5 6 4 3 3 3 3 4 5 6 5 3 1 2 6 9 16 21 23 23 24 25 25 27 28 27 30 31 30 29
3 5 12 11 10 5 3 6 5 7 6 6 8 7 7 6 7 5 5 4 4 4 4 5 5 5 6 7 7 9 15 19 22 23 24 25 26 27 28 27 24 23 22 24
Wind_Direction
143 181 200 175 172 172 170 213 181 236 208 179 222 244 264 223 228 244 245 234 231 233 239 237 235 231 231 229 228 228 223 221 218 216 218 224 229 236 239 243 245 247 246 246
105 211 186 177 186 176 169 199 221 305 193 167 229 254 255 180 237 213 225 237 236 241 233 241 237 228 234 233 232 230 230 226 221 222 220 224 227 235 241 246 249 248 249 252
175 208 163 155 166 175 186 170 200 212 99 7 352 279 267 254 220 238 248 236 236 229 237 236 216 230 231 233 232 233 231 230 228 225 224 225 230 233 238 241 246 245 247 248
171 168 159 152 189 146 198 194 172 156 133 233 167 278 256 240 238 218 239 240 243 236 231 236 218 225 227 233 234 234 233 231 230 228 224 225 221 220 230 234 239 243 243 246
202 153 144 188 174 164 215 160 153 134 163 330 189 286 250 158 243 248 236 230 237 240 230 226 229 237 236 236 233 232 230 230 229 226 225 224 220 227 232 238 241 243 244 247
173 184 160 183 146 161 152 80 50 56 73 268 184 188 243 192 200 235 239 227 240 259 250 246 243 246 245 240 234 229 226 229 228 226 225 225 222 224 228 230 236 240 242 244
120 187 173 139 101 65 119 109 12 307 266 231 346 228 254 265 253 219 224 203 215 256 257 252 231 211 219 219 224 221 221 224 224 224 226 228 230 229 231 235 235 238 242 244
166 209 168 180 174 155 176 161 158 191 218 251 54 243 251 236 258 265 246 236 259 259 245 243 228 206 202 207 210 211 213 219 218 220 222 226 232 232 234 240 245 245 248 255
168 218 1 163 147 148 191 191 167 103 52 39 233 296 293 269 256 247 246 225 235 237 229 223 198 193 185 187 196 202 202 208 213 218 222 224 224 229 232 240 246 250 253 256
185 129 217 169 99 48 181 153 146 94 165 245 270 276 243 294 270 261 235 229 227 202 209 208 182 197 183 189 196 198 202 207 215 220 225 230 234 234 236 240 244 245 246 249
143 102 201 136 211 161 136 191 111 138 163 181 249 258 222 240 324 253 239 221 219 218 199 187 197 198 188 192 192 188 189 193 198 209 216 225 230 232 232 231 227 232 235 236
186 116 146 193 304 268 198 187 186 193 205 237 150 257 229 251 283 294 302 231 227 230 219 202 190 189 190 187 187 187 184 187 192 190 192 202 208 206 203 199 199 203 207 200
184 199 93 28 335 221 218 199 193 95 79 204 163 257 277 246 302 289 263 276 250 209 203 213 202 201 197 199 199 196 193 190 193 196 192 188 184 179 179 178 177 174 178 177
147 133 177 196 219 135 175 162 152 156 201 194 240 217 282 290 251 230 239 246 253 229 206 205 209 213 215 209 209 205 203 202 199 195 191 184 178 171 167 167 164 165 164 160
165 197 141 142 173 172 167 174 176 194 221 194 253 224 216 221 240 296 177 219 221 231 223 220 218 220 223 220 218 217 215 209 199 194 182 183 181 177 176 170 163 160 158 159
333 65 107 24 52 129 170 185 196 216 217 234 232 251 182 232 271 241 231 251 241 250 238 220 214 220 222 218 219 218 215 206 196 191 186 182 176 173 173 166 162 163 162 162
143 125 105 250 260 81 299 217 207 224 220 229 232 225 184 224 243 243 217 216 223 226 230 213 216 216 218 225 224 219 211 200 195 197 189 182 178 176 175 173 172 171 175 180
171 181 101 155 51 220 258 196 203 216 224 224 240 171 199 207 225 235 236 223 234 235 238 234 231 236 242 239 227 219 207 202 200 196 197 195 192 188 186 183 184 185 187 180
140 159 115 167 210 277 270 177 147 185 249 228 235 237 198 220 208 250 223 217 228 231 240 240 252 254 252 241 220 208 200 201 199 198 198 195 193 193 196 196 192 187 182 179
149 174 160 125 191 231 315 175 128 98 279 203 207 207 206 155 230 251 208 223 235 234 241 251 260 266 260 246 215 200 200 198 202 202 199 197 196 197 199 196 188 186 183 179
179 182 205 196 231 276 243 178 134 182 266 194 220 215 202 198 224 194 145 203 305 280 288 277 264 252 256 236 208 200 201 204 208 201 198 197 199 201 199 191 189 182 176 172
165 168 193 191 224 251 186 76 185 226 34 77 57 66 193 215 119 236 297 353 359 340 327 298 267 249 248 227 205 196 200 208 201 197 195 194 197 198 195 191 182 180 176 171
179 191 171 192 212 222 232 184 164 137 156 126 114 69 75 101 114 342 332 7 357 347 331 328 303 256 228 207 208 202 202 197 188 190 192 192 196 196 194 187 181 177 177 174
207 152 188 108 201 206 173 190 134 79 99 85 89 107 75 116 112 104 84 18 30 38 29 356 344 326 272 205 210 216 196 190 186 186 186 188 190 190 188 188 186 181 180 183
176 148 165 266 32 48 26 190 142 95 88 89 64 62 75 108 76 83 91 95 87 61 40 56 65 68 88 171 194 199 192 186 183 186 186 186 188 187 187 191 189 191 195 198
203 175 196 224 182 166 189 131 109 95 80 75 96 68 40 72 90 91 70 36 32 58 73 93 97 129 157 166 178 185 191 191 189 183 187 188 187 189 190 186 187 199 209 212